Weather History for New Bern, NC

Change the Weather History Date:

Monday, November 25, 2013

  Actual Average Record
Temperature  
Mean Temperature 35 °F 52 °F  
Max Temperature 46 °F 64 °F 83 °F (1973)
Min Temperature 24 °F 41 °F 22 °F (1950)
Degree Days  
Heating Degree Days 30 13  
Month to date heating degree days 257 242  
Since 1 July heating degree days 333 359  
Cooling Degree Days 0 0  
Month to date cooling degree days 16 14  
Year to date cooling degree days 2006 1899  
Moisture  
Dew Point 19 °F    
Average Humidity 56    
Maximum Humidity 75    
Minimum Humidity 36    
Precipitation  
Precipitation 0.00 in 0.11 in 1.48 in (1972)
Month to date precipitation 1.74 2.81  
Year to date precipitation 37.57 48.76  
Snow  
Snow 0.00 in - - ()
Month to date snowfall T  
Since 1 July snowfall T  
Snow Depth 0.00 in    
Sea Level Pressure  
Sea Level Pressure 30.53 in    
Wind  
Wind Speed 5 mph (NE)    
Max Wind Speed 10 mph    
Max Gust Speed 14 mph    
Visibility 10 miles    
Events      
T = Trace of Precipitation, MM = Missing Value Source: NWS Daily Summary

Daily Weather History Graph

Daily Weather History Graph

Search for Another Location

Airport:

Trip Planner

Search our weather history database for the weather conditions in past years. The results will help you decide how hot, cold, wet, or windy it might be!

Date:

Astronomy

Nov. 25, 2013 Rise Set
Actual Time 6:52 AM EST 4:57 PM EST
Civil Twilight 6:25 AM EST 5:25 PM EST
Nautical Twilight 5:54 AM EST 5:56 PM EST
Astronomical Twilight 5:23 AM EST 6:26 PM EST
Moon No Moon Rise 12:17 PM EST (11/25)
Length of Visible Light 10h 59m
Length of Day
10h 04m
Waning Gibbous, 51% of the Moon is Illuminated
Nov 25
Waning Gibbous
Nov 25
Last Quarter
Dec 2
New
Dec 9
First Quarter
Dec 17
Full

Hourly Weather History & Observations

Time (EST) Temp. Windchill Dew Point Humidity Pressure Visibility Wind Dir Wind Speed Gust Speed Precip Events Conditions
12:54 AM 30.0 °F 22.4 °F 10.9 °F 45% 30.54 in 10.0 mi North 8.1 mph - N/A   Clear
1:54 AM 28.0 °F 21.7 °F 12.0 °F 51% 30.54 in 10.0 mi NNW 5.8 mph - N/A   Clear
2:54 AM 27.0 °F 21.6 °F 12.0 °F 53% 30.55 in 10.0 mi NNW 4.6 mph - N/A   Clear
3:54 AM 26.1 °F 21.9 °F 14.0 °F 60% 30.56 in 10.0 mi WNW 3.5 mph - N/A   Clear
4:54 AM 25.0 °F 20.7 °F 15.1 °F 66% 30.57 in 10.0 mi NNW 3.5 mph - N/A   Clear
5:54 AM 24.1 °F 18.2 °F 15.1 °F 69% 30.59 in 10.0 mi NNW 4.6 mph - N/A   Clear
6:54 AM 27.0 °F 18.7 °F 14.0 °F 58% 30.59 in 10.0 mi NNE 8.1 mph - N/A   Clear
7:54 AM 28.9 °F 21.1 °F 15.1 °F 56% 30.58 in 10.0 mi NNE 8.1 mph - N/A   Clear
8:54 AM 33.1 °F 26.1 °F 15.1 °F 48% 30.60 in 10.0 mi North 8.1 mph - N/A   Clear
9:54 AM 36.0 °F 29.6 °F 16.0 °F 44% 30.60 in 10.0 mi NNE 8.1 mph - N/A   Clear
10:54 AM 39.0 °F 33.4 °F 18.0 °F 43% 30.60 in 10.0 mi North 8.1 mph - N/A   Clear
11:54 AM 41.0 °F - 19.0 °F 41% 30.58 in 10.0 mi Calm Calm - N/A   Clear
12:54 PM 42.1 °F 38.4 °F 18.0 °F 38% 30.54 in 10.0 mi ESE 5.8 mph - N/A   Clear
1:54 PM 45.0 °F 41.8 °F 19.0 °F 36% 30.51 in 10.0 mi East 5.8 mph - N/A   Clear
2:54 PM 45.0 °F 42.6 °F 21.9 °F 40% 30.51 in 10.0 mi Variable 4.6 mph - N/A   Clear
3:54 PM 43.0 °F 38.2 °F 24.1 °F 47% 30.51 in 10.0 mi SE 8.1 mph - N/A   Clear
4:54 PM 41.0 °F 39.0 °F 25.0 °F 53% 30.50 in 10.0 mi ESE 3.5 mph - N/A   Clear
5:54 PM 39.0 °F 34.8 °F 24.1 °F 55% 30.48 in 10.0 mi East 5.8 mph - N/A   Clear
6:54 PM 37.0 °F 33.3 °F 24.1 °F 59% 30.49 in 10.0 mi ENE 4.6 mph - N/A   Clear
7:54 PM 33.1 °F 30.0 °F 25.0 °F 72% 30.49 in 10.0 mi East 3.5 mph - N/A   Clear
8:54 PM 34.0 °F - 25.0 °F 70% 30.46 in 10.0 mi Calm Calm - N/A   Clear
9:54 PM 33.1 °F - 26.1 °F 75% 30.45 in 10.0 mi Calm Calm - N/A   Clear
10:54 PM 35.1 °F 30.1 °F 28.0 °F 76% 30.41 in 10.0 mi East 5.8 mph - N/A   Clear
11:54 PM 39.0 °F 34.8 °F 30.9 °F 73% 30.39 in 10.0 mi ENE 5.8 mph - N/A   Clear